C/2017 U2 ( Fuls )

Japanese version
Home page
Updated on October 30, 2017

---------------------------------------------------------------------

* Profile

Discovery Date October 22, 2017
Magnitude 21.2 mag
Discoverer D. C. Fuls (Mount Lemmon)

* Orbital Elements

Epoch 2017 Sept. 4.0 TT = JDT 2458000.5
T 2017 Sept. 3.01108 TT                                 MPCW
q   6.7003262            (2000.0)            P               Q
z  +0.0002864      Peri.  148.20287     +0.75905207     +0.41476715
 +/-0.0002170      Node   149.73222     -0.56241398     +0.02952452
e   0.9980808      Incl.   95.40018     +0.32791838     -0.90944847
From 34 observations 2017 Sept. 8-Oct. 27, mean residual 0".3.

* Magnitudes Graph

        m1 = 8.5 + 5 log d + 10.0 log r

---------------------------------------------------------------------

The orbital elements are published on M.P.E.C. 2017-U239.
The magnitudes graphs are made with Comet for Windows.

---------------------------------------------------------------------

Copyright(C) Seiichi Yoshida (comet@aerith.net). All rights reserved.